20210406,4726
20210407,4726
20210408,4726
20210409,5315
20210412,5864
20210413,6221
20210414,6500
20210415,6847
20210416,7122
20210419,7537
20210420,8022
20210421,8117
20210422,8226
20210423,8645
20210426,8798
20210427,9304
20210428,9750
20210430,10068
20210506,10041
20210507,10110
20210510,10049
20210511,10180
20210512,9955
20210513,10082
20210514,9986
20210517,10220
20210518,10527
20210519,10729
20210520,10886
20210521,10934
20210524,11304
20210525,11431
20210526,11770
20210527,11872
20210528,12029
20210531,12363
20210601,12586
20210602,12629
20210603,12606
20210604,12669
20210607,12588
20210608,12701
20210609,12984
20210610,12942
20210611,13195
20210614,13498
20210615,13681
20210616,13845
20210617,13811
20210618,13889
20210621,14062
20210622,13946
20210623,14229
20210624,14555
20210625,14550
20210628,14887
20210629,14932
20210630,15183
20210701,15324
20210702,15491
20210705,15578
20210706,15683
20210707,15798
20210708,15956
20210709,15804
20210712,15964
20210713,16348
20210714,16676
20210715,16741
20210716,16718
20210719,17034
20210720,17154
20210721,17448
20210726,18162
20210727,18476
20210728,18352
20210729,18352
20210730,18723
20210802,18789
20210803,18935
20210804,19061
20210805,19390
20210806,19909
20210810,20022
20210811,20719
20210812,21266
20210813,20876
20210816,21108
20210817,21083
20210818,20962
20210819,21155
20210820,21066
20210823,20951
20210824,21433
20210825,21674
20210826,21896
20210827,22184
20210830,22158
20210831,22513
20210901,22955
20210902,23084
20210903,23315
20210906,23537
20210907,23802
20210908,23980
20210909,24630
20210910,24571
20210913,25723
20210914,25841
20210915,25784
20210916,25834
20210917,26002
20210921,26131
20210922,26381
20210924,27330
20210927,27363
20210928,27557
20210929,27604
20210930,27644
20211001,27866
20211004,27870
20211005,27746
20211006,27363
20211007,27534
20211008,27834
20211011,28337
20211012,28520
20211013,28823
20211014,29540
20211015,30267
20211018,31202
20211019,31464
20211020,31996
20211021,32703
20211022,32931
20211025,33438
20211026,33902
20211027,34185
20211028,33801
20211029,34690
20211101,35561
20211102,36070
20211104,36751
20211105,37120
20211108,37373
20211109,36882
20211110,37034
20211111,37118
20211112,37129
20211115,37639
20211116,38227
20211117,38643
20211118,39189
20211119,39118
20211122,39048
20211124,38928
20211125,38039
20211126,39097
20211129,38317
20211130,39092
20211201,39551
20211202,39730
20211203,38586
20211206,38751
20211207,37804
20211208,38760
20211209,39703
20211210,40010
20211213,39170
20211214,39243
20211215,39071
20211216,39079
20211217,39906
20211220,39080
20211221,39710
20211222,39904
20211223,40950
20211224,41041
20211227,41623
20211228,41621
20211229,41619
20211230,41618
20220104,41924
20220105,42355
20220106,41702
20220107,40164
20220111,39440
20220112,39311
20220113,39865
20220114,39880
20220117,38489
20220118,38487
20220119,37881
20220120,37305
20220121,36966
20220124,36627
20220125,35636
20220126,35403
20220127,35206
20220128,34838
20220131,34247
20220201,35071
20220202,36302
20220203,36635
20220204,35841
20220207,35369
20220208,35504
20220209,35663
20220210,36181
20220214,36596
20220215,35087
20220216,35548
20220217,36387
20220218,35977
20220221,35044
20220222,34120
20220224,34033
20220225,32159
20220228,34384
20220301,34622
20220302,35072
20220303,34985
20220304,35209
20220307,34383
20220308,33156
20220309,32941
20220310,33392
20220311,33959
20220314,33622
20220315,33631
20220316,32967
20220317,34092
20220318,34090
20220322,37487
20220323,37817
20220324,38686
20220325,38563
20220328,38998
20220329,39441
20220330,39989
20220331,40054
20220401,39868
20220404,39616
20220405,40288
20220406,40777
20220407,39890
20220408,38932
20220411,39202
20220412,38947
20220413,38474
20220414,38648
20220415,38947
20220418,38942
20220419,38941
20220420,38573
20220421,39450
20220422,39028
20220425,38104
20220426,36689
20220427,37078
20220428,35856
20220502,36390
20220506,36756
20220509,35046
20220510,33744
20220511,32478
20220512,32472
20220513,30492
20220516,31386
20220517,32545
20220518,32736
20220519,32986
20220520,31168
20220523,32231
20220524,31480
20220525,31352
20220526,30705
20220527,30828
20220530,31744
20220531,33096
20220601,33190
20220602,32990
20220603,32461
20220606,33477
20220607,33460
20220608,33434
20220609,34225
20220610,34119
20220613,32839
20220614,31072
20220615,30243
20220616,30386
20220617,29969
20220620,29841
20220621,30395
20220622,31076
20220623,30450
20220624,30738
20220627,31434
20220628,32288
20220629,32189
20220630,31406
20220701,30881
20220704,30549
20220705,30939
20220706,30894
20220707,31202
20220708,31502
20220711,32228
20220712,32403
20220713,31502
20220714,31575
20220715,31581
20220719,32352
20220720,31847
20220721,32704
20220722,33440
20220725,33694
20220726,32887
20220727,32983
20220728,32662
20220729,32826
20220801,32664
20220802,32640
20220803,32349
20220804,33317
20220805,35106
20220808,35105
20220809,35307
20220810,35287
20220812,35066
20220815,35009
20220816,35444
20220817,35944
20220818,35856
20220819,35112
20220822,35024
20220823,33809
20220824,33542
20220825,33443
20220826,33935
20220829,34202
20220830,33088
20220831,33184
20220901,32940
20220902,32347
20220905,32820
20220906,32525
20220907,32977
20220908,33028
20220909,33861
20220912,34231
20220913,35036
20220914,35140
20220915,33856
20220916,34108
20220920,33102
20220921,33219
20220922,32859
20220926,31156
20220927,31010
20220928,30989
20220929,30669
20220930,31133
20221003,30907
20221004,30578
20221005,31831
20221006,32562
20221007,32387
20221011,31190
20221012,30839
20221013,30736
20221014,30588
20221017,31339
20221018,30740
20221019,32315
20221020,31946
20221021,31439
20221024,31420
20221025,31915
20221026,31897
20221027,32566
20221028,32504
20221031,32759
20221101,32751
20221102,33741
20221104,33364
20221107,33398
20221108,33652
20221109,33650
20221110,33713
20221111,33076
20221114,34171
20221115,34394
20221116,34231
20221117,34554
20221118,34056
20221121,33644
20221122,33863
20221124,33577
20221125,33545
20221128,33540
20221129,32923
20221130,32780
20221201,32656
20221202,33100
20221205,32896
20221206,33197
20221207,32730
20221208,32405
20221209,32288
20221212,32606
20221213,32354
20221214,32402
20221215,32463
20221216,32784
20221219,31898
20221220,31641
20221221,30397
20221222,30415
20221223,30916
20221226,30510
20221227,30508
20221228,30507
20221229,30506
20221230,29864
20230104,29935
20230105,29434
20230106,30104
20230110,30384
20230111,30567
20230112,30921
20230113,30840
20230116,30710
20230117,30970
20230118,31034
20230119,31391
20230120,30828
20230123,30588
20230124,31298
20230125,31694
20230126,31307
20230127,31592
20230130,31797
20230131,31971
20230201,31460
20230202,31854
20230203,32287
20230206,32604
20230207,32591
20230208,32567
20230209,32474
20230210,32028
20230213,31633
20230214,31878
20230215,32312
20230216,32612
20230217,33007
20230220,32366
20230221,32122
20230222,32152
20230224,31438
20230227,31319
20230228,31126
20230301,31179
20230302,31214
20230303,31045
20230306,31357
20230307,31872
20230308,31798
20230309,31593
20230310,31314
20230313,30865
20230314,29420
20230315,29964
20230316,30292
20230317,29715
20230320,29737
20230322,30041
20230323,30561
20230324,29858
20230327,29400
20230328,29746
20230329,29845
20230330,29941
20230331,30622
20230403,30884
20230404,31474
20230405,31288
20230406,30865
20230407,30238
20230410,30235
20230411,30234
20230412,30919
20230413,31113
20230414,30907
20230417,31136
20230418,31171
20230419,31326
20230420,31404
20230421,31279
20230424,30742
20230425,31039
20230426,30767
20230427,30073
20230428,29918
20230501,30329
20230502,30294
20230508,30300
20230509,31030
20230510,31057
20230511,30890
20230512,31119
20230515,30847
20230516,31018
20230517,31193
20230518,30886
20230519,31228
20230522,31650
20230523,31431
20230524,31864
20230525,31327
20230526,31219
20230529,30960
20230530,31375
20230531,31216
20230601,30906
20230602,30777
20230605,31053
20230606,31045
20230607,31689
20230608,31743
20230609,31402
20230612,31454
20230613,31554
20230614,32021
20230615,32253
20230616,32394
20230619,32715
20230620,32512
20230621,32209
20230622,32273
20230623,31911
20230626,31983
20230627,31633
20230628,31414
20230629,31632
20230630,32050
20230703,31985
20230704,32321
20230705,32347
20230706,32191
20230707,31848
20230710,30768
20230711,30719
20230712,30560
20230713,30699
20230714,30960
20230718,31071
20230719,31399
20230720,31819
20230721,31595
20230724,31491
20230725,31469
20230726,31457
20230727,31112
20230728,31181
20230731,30663
20230801,31755
20230802,31716
20230803,31027
20230804,30527
20230807,30656
20230808,30620
20230809,30443
20230810,30152
20230814,30437
20230815,30098
20230816,30074
20230817,29743
20230818,29509
20230821,28891
20230822,28834
20230823,29108
20230824,29181
20230825,29526
20230828,29070
20230829,29353
20230830,29534
20230831,29759
20230901,29881
20230904,29781
20230905,30257
20230906,30147
20230907,29996
20230908,29899
20230911,29742
20230912,29257
20230913,29540
20230914,29366
20230915,29488
20230919,29222
20230920,28856
20230921,28608
20230922,28259
20230925,27743
20230926,27467
20230927,27406
20230928,27314
20230929,27394
20231002,27691
20231003,27851
20231004,27527
20231005,26937
20231006,27200
20231010,27386
20231011,27375
20231012,27767
20231013,27771
20231016,27332
20231017,26920
20231018,27185
20231019,27170
20231020,26731
20231023,26437
20231024,26008
20231025,26023
20231026,26271
20231027,25641
20231030,25766
20231031,25718
20231101,25702
20231102,25814
20231106,26436
20231107,27054
20231108,26834
20231109,27131
20231110,27182
20231113,27007
20231114,27359
20231115,27479
20231116,28315
20231117,28358
20231120,27996
20231121,27859
20231122,28070
20231124,28232
20231127,28264
20231128,28287
20231129,28201
20231130,27996
20231201,28019
20231204,28133
20231205,27974
20231206,27834
20231207,27798
20231208,27253
20231211,27209
20231212,27442
20231213,27471
20231214,27587
20231215,27396
20231218,27841
20231219,27633
20231220,28061
20231221,27917
20231222,27321
20231225,27566
20231226,27565
20231227,27564
20231228,27563
20231229,27894
20240104,27531
20240105,27254
20240109,27377
20240110,27797
20240111,27880
20240112,28029
20240115,27795
20240116,27826
20240117,27789
20240118,27553
20240119,27261
20240122,27308
20240123,27374
20240124,27401
20240125,27592
20240126,27434
20240129,27377
20240130,27471
20240131,27578
20240201,27192
20240202,26718
20240205,28370
20240206,28343
20240207,28557
20240208,28678
20240209,29004
20240213,29181
20240214,29089
20240215,28278
20240216,28652
20240219,28743
20240220,28409
20240221,28472
20240222,28163
20240226,28280
20240227,27942
20240228,27932
20240229,28096
20240301,27950
20240304,28089
20240305,28367
20240306,28105
20240307,27676
20240308,27578
20240311,27771
20240312,27390
20240313,27701
20240314,27829
20240315,27640
20240318,27417
20240319,27139
20240321,27692
20240322,28029
20240325,27698
20240326,27518
20240327,27559
20240328,27413
20240329,27468
20240401,27465
20240402,27464
20240403,27297
20240404,26917
20240405,26873
20240408,26537
20240409,26784
20240410,26796
20240411,26980
20240412,26728
20240415,26745
20240416,26357
20240417,25769
20240418,25634
20240419,25347
20240422,24997
20240423,24863
20240424,25013
20240425,25638
20240426,25484
20240430,25530
20240501,25967
20240502,25738
20240507,25221
20240508,26068
20240509,26216
